Location: Crescent
(42.8242°N, 73.7329°W)
Time: 01:47:28
(UTC+00:00)

Tiros 1 - Pass Details

Date: 19 February 2026
Orbit: 618 x 649 km, 48.4° (Epoch: 10 March)

Event Time Altitude Azimuth Distance (km) Brightness Sun altitude
Rises 20:22:20 0° 281° (W) 2,886 11.1 20.3°
Reaches altitude 10° 20:26:26 10° 245° (WSW) 1,974 11.6 19.8°
Maximum altitude 20:27:36 11° 230° (SW) 1,914 12.1 19.6°
Drops below altitude 10° 20:28:46 10° 214° (SW) 1,972 11.3 19.4°
Sets 20:32:52 0° 178° (S) 2,875 11.0 18.8°
